Wind_Speed
24 26 25 22 20 17 16 16 14 13 10 8 6 4 3 3 3 6 3 5 3 3 5 1 2 5 3 6 5 8 5 2 2 2 4 4 1 4 2 4 5 7 6 4 3 3 6 2 5 5 7 12 11 11
22 25 23 22 20 17 16 15 14 13 12 10 7 5 3 3 3 5 3 6 8 3 4 3 4 4 5 8 1 9 1 5 5 3 3 2 2 0 1 3 5 4 7 4 8 5 9 8 7 3 5 4 5 2
17 16 25 22 21 17 16 16 15 13 12 10 8 6 4 3 3 4 4 2 4 3 3 4 3 3 4 4 3 3 1 2 4 4 4 3 3 5 4 5 8 6 10 5 7 7 12 11 7 9 8 6 3 1
17 16 12 19 20 19 17 17 15 13 12 11 9 6 5 4 4 5 4 2 3 5 3 3 1 3 3 1 1 3 7 7 7 3 2 3 3 7 4 6 7 8 10 10 13 16 12 10 9 6 5 3 1 3
14 14 13 9 14 19 19 18 16 15 13 11 10 8 6 5 6 6 6 4 4 3 3 2 3 1 2 1 4 3 8 5 2 2 2 3 3 1 2 3 8 8 13 9 7 3 1 2 5 4 4 1 3 6
14 12 11 9 5 13 21 18 17 17 15 13 11 9 7 6 6 3 2 1 2 3 3 2 3 1 0 2 5 6 7 2 2 3 3 3 3 3 4 4 6 6 6 6 2 4 5 8 4 5 3 3 7 11
13 12 10 11 9 2 11 22 20 19 17 15 13 10 8 7 2 2 1 2 5 3 2 2 2 2 0 3 2 3 4 0 3 2 3 3 5 3 2 6 9 2 0 3 9 10 5 5 3 6 5 8 10 14
11 12 12 9 8 7 2 11 23 22 20 17 14 12 11 8 4 2 3 8 6 5 3 3 2 2 3 2 2 0 2 1 2 2 1 3 1 1 4 6 5 5 5 6 4 3 2 6 5 5 6 10 11 12
8 9 10 10 8 7 7 2 14 27 23 20 16 13 8 5 5 3 7 7 1 1 3 3 5 4 4 2 2 1 1 2 2 1 2 2 3 5 6 6 7 9 6 6 5 5 5 0 3 6 9 11 12 12
7 7 8 10 8 5 6 5 4 21 27 24 18 6 1 5 9 12 3 2 3 2 2 3 3 4 4 2 2 3 0 1 2 2 2 2 3 2 4 4 6 9 8 10 7 3 1 4 6 8 10 13 14 15
6 8 9 10 10 8 11 5 4 13 20 10 4 2 5 15 4 2 2 3 1 1 2 2 5 4 1 3 3 1 2 2 3 2 3 2 3 6 10 10 10 12 10 5 2 2 5 6 8 10 10 12 14 16
5 7 8 8 8 8 13 9 16 11 6 8 15 11 4 2 2 3 3 2 4 4 3 3 2 2 2 1 2 1 3 2 3 3 2 3 2 9 11 11 10 9 7 3 1 5 8 10 12 12 13 15 15 17
2 4 6 6 6 8 11 13 19 25 13 8 7 3 1 1 3 6 8 3 4 4 4 3 2 2 2 2 2 3 4 3 1 2 3 0 6 9 9 8 8 8 4 1 6 10 12 12 12 11 14 16 17 16
2 3 5 4 3 8 15 19 16 7 7 3 2 3 2 3 0 1 3 4 3 3 6 4 2 2 1 2 1 3 2 2 3 3 4 2 7 9 8 7 5 6 6 2 10 13 11 12 12 14 19 19 19 17
3 1 3 3 4 11 17 12 9 7 4 2 1 2 2 2 3 2 2 2 2 3 3 4 3 1 2 2 0 3 4 3 4 2 2 3 7 7 6 4 4 4 4 9 13 13 12 15 15 15 15 16 14 21
2 2 3 3 12 12 10 9 8 3 3 2 1 2 1 2 2 3 4 3 3 2 3 2 2 1 2 1 2 3 1 3 2 2 2 6 7 5 4 2 5 9 12 14 14 14 14 15 17 17 16 20 22 18
4 1 5 5 10 8 5 5 3 3 2 2 2 2 3 3 3 2 1 2 2 1 2 2 1 3 2 1 2 2 2 2 2 3 3 5 6 5 5 7 8 11 13 14 14 15 15 16 16 15 15 17 17 16
4 5 9 10 10 6 3 1 2 2 3 2 2 3 2 1 3 2 1 3 1 1 2 2 3 2 3 3 2 2 2 1 2 4 4 3 4 8 11 13 14 14 15 14 14 14 15 15 13 15 19 21 20 19
9 9 15 14 8 3 2 2 2 3 3 2 3 2 2 3 3 6 3 4 3 2 4 2 2 3 2 2 2 1 2 2 3 4 5 7 11 12 13 14 14 15 15 15 14 15 15 14 15 16 17 17 18 17
8 9 14 12 7 3 2 2 1 2 2 2 3 3 2 3 2 2 2 0 2 1 1 2 3 2 1 0 1 2 1 3 3 6 8 8 12 10 12 14 14 15 15 15 15 14 14 16 17 17 16 15 17 19
11 11 13 12 5 5 3 2 3 2 3 2 3 2 3 2 2 2 1 1 1 2 3 4 4 3 4 3 2 3 6 8 7 7 8 8 11 12 13 14 15 13 13 12 12 16 16 16 18 14 12 14 17 18
7 10 5 6 3 1 3 3 2 2 1 3 4 2 3 2 2 2 2 2 3 5 4 3 4 4 4 6 7 8 9 10 10 12 13 14 8 10 11 12 12 11 13 13 15 16 16 17 15 13 15 17 17 19
11 5 4 2 3 1 2 1 2 1 2 4 3 3 3 2 2 2 2 3 3 4 7 7 5 5 7 6 6 8 8 9 10 12 12 13 13 13 12 13 14 13 13 16 17 17 16 13 13 16 15 16 17 18
6 5 3 3 2 4 2 2 2 2 2 3 3 3 3 2 2 2 3 2 3 2 3 4 4 3 4 5 5 5 6 8 12 15 14 14 13 14 14 15 16 14 15 14 13 15 16 15 16 15 14 14 14 13
3 3 1 4 1 3 3 4 2 1 2 2 3 2 3 3 3 3 3 1 4 6 6 8 4 3 3 4 6 8 10 10 12 14 18 18 19 20 17 18 18 16 12 13 14 14 10 11 13 13 13 12 12 13
4 1 0 2 3 2 4 4 4 4 3 3 3 2 2 2 3 3 2 4 5 6 8 8 8 6 7 12 11 14 17 16 16 18 20 20 18 16 16 13 14 15 11 11 9 10 10 11 12 11 11 11 10 12
4 2 2 2 3 4 4 2 3 2 4 4 4 5 4 4 4 2 5 8 4 9 10 9 10 10 11 14 15 16 17 16 16 20 25 25 25 24 22 16 13 5 3 7 9 9 10 11 11 11 11 10 9 10
3 2 5 4 2 1 3 4 4 5 3 3 5 5 3 3 1 3 4 6 8 9 9 9 9 11 12 13 14 15 16 18 20 19 18 16 10 11 15 15 15 14 10 8 8 9 9 9 10 10 10 10 10 8
3 3 3 3 2 1 2 2 3 2 2 4 3 3 2 3 3 4 5 8 8 8 9 11 12 13 12 12 11 11 12 16 19 15 15 9 14 16 23 18 17 15 14 12 11 9 8 8 7 7 8 8 7 5
3 1 2 2 1 1 2 0 1 1 2 1 1 3 3 4 5 5 6 8 9 10 10 10 11 12 13 14 13 13 10 13 15 14 9 11 17 20 19 19 18 18 16 14 13 11 9 7 7 5 5 5 5 4
1 1 2 2 2 1 1 2 2 2 2 1 2 2 3 4 5 7 9 7 7 8 10 10 10 11 12 13 14 15 13 12 16 16 16 15 16 17 18 19 18 18 16 14 13 10 9 7 5 3 3 4 5 6
1 1 0 0 0 2 1 1 1 2 1 2 2 3 3 3 2 3 5 7 7 8 9 10 11 13 12 11 11 10 12 15 15 17 17 18 18 18 19 18 17 16 15 14 10 8 7 6 4 4 2 4 5 6
1 0 1 1 2 1 1 2 1 1 1 1 2 2 3 3 2 3 2 5 5 6 9 11 12 14 11 10 13 11 14 15 16 17 17 19 19 18 18 16 17 15 13 11 9 7 6 5 4 4 4 5 5 6
Wind_Direction
181 181 186 184 184 185 181 178 176 174 171 163 150 123 94 88 86 68 73 49 12 72 124 167 124 147 163 182 157 127 141 142 119 129 168 205 209 202 223 261 175 187 179 207 216 248 273 108 251 312 302 322 6 13
170 179 181 184 183 184 182 179 177 176 174 171 161 141 110 98 110 99 107 72 66 58 82 96 90 45 24 12 156 177 188 149 174 129 186 168 186 17 222 243 177 251 209 248 196 236 303 303 347 6 342 12 14 65
74 148 177 183 185 181 184 183 180 177 178 175 166 153 133 107 117 105 122 80 80 86 118 178 149 71 67 48 18 180 218 153 182 5 139 174 193 173 174 228 267 277 277 234 273 267 297 308 25 58 36 79 102 300
67 70 122 174 184 188 187 187 187 182 178 179 175 162 141 113 106 104 127 64 61 77 118 140 86 135 341 356 103 33 105 94 97 131 115 143 185 203 213 258 274 270 283 269 263 280 317 53 71 71 78 97 186 249
67 65 70 102 190 194 193 189 189 188 187 184 183 176 154 124 106 91 92 63 58 322 146 127 136 83 24 231 196 163 163 153 134 109 122 196 231 211 221 290 259 252 270 266 264 73 292 93 85 120 154 255 339 310
69 69 66 71 97 180 199 200 193 189 191 190 187 186 170 156 132 150 165 85 52 50 107 131 72 100 12 177 174 191 204 104 192 152 195 253 163 221 193 225 257 285 301 18 303 107 103 121 140 187 230 308 303 320
70 64 72 62 55 101 196 205 203 198 194 193 192 192 185 180 153 262 36 90 141 85 85 84 216 83 45 147 115 170 27 66 218 217 203 216 204 222 210 245 262 259 214 90 124 107 103 188 210 216 256 299 320 314
61 58 57 64 55 46 62 201 201 202 198 191 194 195 195 192 188 176 45 146 115 103 71 138 184 205 204 140 169 109 144 259 210 247 91 222 172 140 247 247 222 152 127 114 114 183 182 161 197 247 317 316 316 318
51 47 39 41 43 31 19 2 209 205 204 195 197 193 183 190 153 178 168 157 146 48 168 150 169 194 162 121 91 112 213 181 76 238 220 194 177 216 235 188 169 162 152 149 170 157 130 198 322 324 323 320 314 316
36 30 23 20 20 26 1 332 235 203 200 192 180 167 217 183 145 137 106 51 15 356 55 181 157 162 197 159 153 136 210 245 226 207 150 215 248 276 204 164 159 157 169 165 192 178 310 321 322 315 311 313 319 319
26 30 23 20 26 39 16 345 192 180 178 173 117 96 120 133 122 49 152 140 168 259 192 182 195 141 206 158 160 268 165 154 236 159 239 225 244 194 161 149 147 151 161 163 90 19 323 316 306 304 306 318 314 314
12 29 36 28 42 67 33 68 137 136 122 125 111 112 119 85 66 144 176 152 204 210 155 151 133 85 111 107 106 178 159 161 232 149 226 246 147 136 157 156 152 155 162 157 308 311 306 302 308 311 309 308 308 306
26 36 41 24 42 81 85 98 110 110 104 66 55 65 94 19 174 197 186 187 187 157 159 166 113 100 102 72 110 169 185 194 204 182 230 327 121 160 164 158 168 181 145 358 312 313 310 306 305 298 295 294 297 297
357 33 40 26 36 137 134 125 124 95 47 66 95 112 302 173 350 351 352 72 61 107 115 106 93 91 145 115 139 178 86 202 210 230 222 144 164 162 161 167 178 197 156 295 312 301 299 287 284 289 295 299 299 290
324 5 73 57 112 154 148 132 111 68 59 69 350 72 69 55 36 25 18 86 40 104 115 117 89 102 83 120 59 122 170 224 223 239 78 124 153 161 143 173 226 261 271 277 289 293 286 286 284 287 289 291 286 288
231 174 116 150 152 110 115 113 70 68 72 57 77 122 72 96 60 31 36 55 23 50 53 39 82 137 91 66 184 205 224 231 103 87 142 134 139 152 182 200 267 283 290 291 291 289 288 283 280 288 292 295 299 291
191 109 177 165 150 143 102 76 49 51 85 154 91 40 72 48 68 65 27 76 62 42 63 71 108 54 107 203 240 224 253 31 112 144 121 133 168 192 237 278 282 281 281 283 284 285 288 292 291 290 287 295 296 297
201 196 183 164 139 133 89 66 96 77 89 102 155 128 85 33 111 108 100 120 104 106 153 96 135 182 215 220 186 191 218 143 160 164 166 169 232 274 280 279 284 285 283 282 281 281 283 274 270 280 304 309 311 308
205 200 180 175 178 126 82 54 7 93 65 91 100 94 88 97 43 43 74 83 64 87 121 140 184 219 219 215 239 226 186 216 210 207 230 266 288 287 281 276 276 275 276 278 283 283 287 287 289 295 299 308 304 304
202 192 165 159 150 69 69 44 6 102 131 109 123 112 59 63 70 52 81 96 113 62 155 217 229 228 234 171 312 285 218 213 280 286 283 283 278 256 262 270 276 286 288 285 280 275 276 276 283 298 302 301 304 299
153 135 142 142 66 50 54 31 61 44 111 95 120 132 78 103 95 94 112 44 18 237 241 241 255 263 268 271 282 273 272 273 273 274 277 282 286 286 283 281 284 280 277 280 283 285 284 276 286 295 299 298 296 296
135 136 104 77 99 94 87 18 55 97 106 116 141 148 124 149 140 130 110 210 241 239 226 253 260 262 251 240 253 247 257 264 269 272 275 276 274 276 275 272 268 270 272 273 280 287 282 291 290 292 297 295 299 299
134 99 76 83 106 91 88 245 100 79 140 151 166 141 145 137 100 166 217 231 254 265 250 263 269 268 260 276 278 275 271 267 272 277 278 276 274 273 266 267 274 272 273 282 296 300 297 288 291 296 292 298 298 300
110 62 57 72 72 113 159 122 153 129 126 170 159 140 138 122 142 193 245 245 251 313 280 275 268 274 246 245 269 281 311 301 289 287 279 271 260 258 269 283 286 280 283 292 299 292 286 286 296 292 291 297 303 313
91 46 74 91 89 139 125 125 114 144 128 155 157 159 158 179 190 208 238 104 39 33 14 10 352 338 329 341 330 336 342 337 317 304 301 293 293 293 287 287 290 285 272 271 263 275 290 300 300 296 301 306 314 316
87 105 188 127 146 138 138 139 163 160 136 160 186 99 177 201 222 230 150 55 56 40 21 12 5 354 342 354 338 329 329 325 314 300 294 292 300 295 293 286 287 285 276 252 275 276 280 295 298 297 299 305 306 313
120 125 110 355 88 116 116 90 114 164 177 180 170 175 184 214 220 121 108 31 12 5 350 353 352 345 331 325 329 326 326 325 319 310 305 298 293 294 296 292 290 307 224 269 267 265 279 293 295 294 300 306 312 326
81 128 134 128 104 45 131 155 170 179 170 170 163 189 206 221 61 63 48 4 351 344 349 355 357 349 336 334 328 330 333 334 329 328 332 315 309 43 15 356 342 338 336 311 291 290 294 291 294 296 302 314 320 330
84 101 106 111 140 157 193 175 190 182 133 174 199 200 141 65 54 27 10 359 358 3 7 3 2 357 353 350 353 356 7 4 360 359 358 351 354 354 355 351 346 345 340 333 325 313 308 310 307 316 316 318 323 333
102 164 105 121 132 162 64 4 90 77 226 6 21 133 117 108 69 47 35 27 26 23 13 9 4 7 6 6 2 4 20 18 17 8 347 342 336 334 338 339 337 335 335 332 330 328 328 336 324 314 339 349 354 353
94 144 139 179 206 112 38 331 262 223 230 232 45 326 70 119 120 55 42 32 26 23 17 8 360 1 0 359 356 348 343 350 351 349 343 334 330 329 329 329 327 327 327 327 327 331 338 326 328 343 10 25 23 14
89 68 25 317 13 60 318 325 295 270 166 214 129 111 139 150 117 92 16 18 24 21 13 1 351 340 334 328 327 330 328 327 332 335 335 335 330 327 325 325 324 324 324 325 329 338 345 343 352 0 3 26 26 19
103 114 48 290 258 229 93 300 237 259 188 130 88 66 41 17 115 102 71 29 26 9 354 343 335 332 322 327 324 319 325 323 322 326 326 329 329 327 326 322 324 326 325 325 330 344 354 358 6 22 38 44 40 32
Height
741 747 754 759 765 769 773 776 779 782 785 787 788 789 789 789 789 790 792 790 791 796 801 801 801 802 803 801 816 816 823 827 835 848 851 846 849 832 833 823 839 848 858 862 856 857 849 818 822 834 830 824 832 832
742 747 754 759 764 769 772 776 779 782 786 789 790 790 791 791 791 791 793 793 793 794 801 806 806 807 806 806 802 814 811 816 818 830 845 844 842 847 843 837 818 833 829 834 836 827 812 815 822 827 828 830 837 844
746 748 753 759 765 769 773 776 780 783 786 788 790 792 793 793 793 793 795 796 797 802 804 804 805 809 809 810 810 811 816 811 816 819 831 841 848 837 850 837 825 818 814 826 830 818 816 818 822 831 836 838 843 844
748 750 753 758 764 768 773 777 780 783 786 789 792 793 794 794 794 795 796 797 799 803 812 806 808 809 811 811 812 812 812 817 819 824 839 842 842 822 828 823 821 819 815 818 819 814 818 830 835 840 842 844 844 842
756 755 757 759 763 768 772 776 780 783 786 789 792 794 795 796 796 797 798 799 800 801 809 807 810 812 812 812 813 814 815 817 823 834 839 837 825 828 830 831 823 815 814 819 822 825 829 836 840 844 844 841 839 838
761 761 761 763 764 766 771 775 779 783 787 790 793 795 797 798 798 799 798 803 802 802 807 812 812 813 813 813 814 814 815 818 821 826 833 822 817 825 840 829 812 810 810 819 816 830 834 839 844 844 840 838 837 836
765 766 765 764 765 767 770 774 778 782 787 790 793 796 798 799 800 799 798 803 802 804 808 815 811 815 817 815 816 817 822 823 822 822 827 823 822 824 828 822 809 815 820 825 830 832 841 842 839 839 837 836 835 835
768 768 767 768 769 770 770 771 775 781 786 790 793 796 798 800 801 802 802 803 804 806 809 820 815 818 818 819 823 824 824 827 825 821 831 825 821 826 823 811 810 817 826 830 830 831 830 834 835 833 834 834 833 832
770 770 770 770 770 770 770 771 773 778 784 789 793 795 798 799 801 802 803 805 806 809 812 818 816 817 817 821 825 827 825 826 831 830 829 827 825 817 808 808 816 822 826 831 831 829 829 832 832 832 832 832 832 831
773 772 772 772 771 772 771 771 771 775 780 787 792 794 798 797 799 803 807 808 809 809 812 810 807 811 811 823 824 827 828 823 823 827 829 829 819 817 814 814 817 821 827 828 828 830 830 832 832 834 834 834 834 832
775 774 774 774 772 772 770 769 770 774 778 780 786 793 796 797 799 804 808 807 813 811 811 806 804 807 817 815 819 825 825 828 820 819 820 813 803 804 813 817 821 823 826 828 829 830 831 833 833 832 830 830 831 831
776 776 775 776 775 774 774 770 771 774 777 780 783 790 796 798 802 800 802 810 805 796 807 808 811 812 819 819 823 829 822 827 813 816 823 811 795 805 812 817 821 825 826 827 830 831 831 831 831 831 832 829 826 826
778 778 778 778 778 778 777 775 777 779 780 781 787 795 798 802 793 790 787 788 793 799 803 808 812 814 818 820 823 822 816 814 820 824 808 791 803 809 812 817 822 824 828 831 830 830 830 829 830 831 829 827 824 821
780 780 779 780 781 780 781 782 784 784 785 791 792 791 791 789 789 788 784 786 798 799 801 807 812 813 817 818 819 810 821 818 816 813 804 800 806 809 813 817 821 823 828 830 830 829 828 828 826 825 824 822 819 815
781 781 781 783 783 782 783 785 786 788 792 795 794 790 794 801 801 803 801 800 803 803 802 806 810 810 814 816 815 818 819 811 803 795 800 803 810 813 816 822 823 826 828 828 826 825 825 824 823 820 818 816 815 812
782 784 784 786 786 787 787 788 789 792 798 800 800 798 803 800 802 803 804 805 806 806 806 807 810 810 812 812 815 810 807 800 797 804 805 809 814 818 821 823 826 826 826 825 823 822 821 820 818 815 813 811 808 806
782 782 784 786 787 789 790 791 794 798 800 799 803 803 803 802 803 807 807 809 811 811 809 812 811 814 823 815 814 808 806 807 807 808 810 814 818 820 822 823 824 823 823 822 820 819 817 816 814 811 809 805 802 799
784 784 785 787 790 792 794 795 796 797 802 803 801 805 807 808 807 811 812 813 814 813 812 815 817 820 815 810 802 807 809 811 811 812 814 817 819 820 820 819 819 818 817 816 816 815 813 810 809 805 801 799 797 794
783 784 787 790 792 793 795 798 797 797 803 805 809 810 809 811 814 814 814 816 816 815 815 816 818 812 809 809 810 810 811 812 812 813 815 816 817 817 818 816 815 814 813 811 809 807 806 804 803 801 798 796 794 791
782 784 787 789 791 793 796 798 798 796 797 804 806 808 811 812 817 818 818 818 817 816 817 816 810 805 805 807 809 810 811 813 813 813 814 813 812 813 814 813 810 808 806 804 803 802 802 800 797 795 794 793 791 787
784 785 787 787 794 798 799 799 800 801 802 802 808 806 814 815 816 818 819 820 819 816 812 808 807 808 809 811 812 812 812 813 813 813 812 810 809 808 807 806 804 803 802 800 799 797 796 794 792 791 790 789 787 783
784 786 788 792 798 801 802 805 802 805 804 807 809 807 812 815 818 820 822 821 817 808 807 807 806 806 808 809 810 810 811 811 811 810 809 808 806 804 802 801 799 798 797 796 795 792 790 790 788 787 786 784 782 778
784 785 790 792 796 800 808 806 805 804 804 808 809 808 811 813 819 825 821 814 809 806 806 806 806 807 808 808 808 808 808 808 807 805 804 803 801 800 799 797 796 794 793 791 790 788 787 785 784 783 781 779 777 773
784 788 792 794 795 803 807 806 806 805 807 805 805 808 811 813 824 821 814 806 804 806 807 806 806 805 805 807 806 805 805 805 804 802 801 799 796 794 792 791 789 788 788 787 787 786 784 782 781 779 777 775 772 769
784 795 795 798 800 800 799 802 806 803 805 808 808 810 815 820 814 813 810 801 806 810 811 808 806 805 804 804 804 805 806 805 804 802 799 798 794 791 788 785 783 782 782 782 782 780 779 778 777 775 773 771 769 767
786 796 793 793 799 794 796 800 803 805 806 810 810 814 816 811 810 803 799 810 814 816 817 816 814 811 809 810 810 809 808 808 805 800 795 794 792 789 784 781 777 776 776 776 777 777 776 774 773 772 770 768 767 765
784 791 795 797 794 797 801 805 805 805 807 805 805 812 810 806 800 800 814 824 822 824 823 822 821 819 817 815 814 812 810 807 805 801 796 793 789 787 783 778 774 773 771 772 773 772 772 771 769 768 767 766 765 763
788 790 791 797 796 796 797 798 801 800 799 799 802 805 802 798 798 819 825 828 827 825 824 823 822 821 819 817 815 812 809 805 801 796 791 787 784 783 782 781 779 775 772 771 770 770 769 768 767 766 765 764 763 762
790 793 795 800 799 798 795 794 794 794 796 798 798 795 800 818 826 827 828 828 828 826 825 824 822 821 819 817 815 812 810 807 804 799 795 792 790 788 786 784 781 778 775 772 770 769 767 766 765 764 764 763 762 761
795 797 795 798 798 794 795 797 798 802 801 801 801 805 814 825 830 830 829 829 828 828 827 826 824 823 821 818 816 814 812 811 809 807 803 800 797 794 790 787 784 780 776 773 771 768 766 765 764 763 763 762 762 761
798 798 797 796 796 798 802 805 805 805 804 802 805 804 811 823 829 831 831 831 830 830 829 828 826 825 823 821 819 816 814 813 811 809 807 803 799 796 792 788 785 781 778 774 771 769 766 764 764 763 763 763 763 763
799 798 796 796 796 802 804 802 801 801 800 801 803 810 815 816 821 831 833 832 831 831 831 830 828 826 825 823 821 819 817 814 811 808 805 802 799 795 791 787 784 780 778 774 771 769 767 766 765 764 764 764 764 764
804 804 805 804 800 799 803 803 799 799 801 801 807 813 816 815 822 832 834 833 833 832 832 830 828 826 823 822 820 817 815 813 810 807 804 800 796 793 789 786 782 778 776 774 772 770 769 768 768 767 766 765 765 765